Weather in Stemasy

Russia / Chuvash Republic     54°47′19″N   46°36′57″E
temp.,
°C
wind,
m/s
gust,
m/s
humid.,
%
clouds,
%
prec.,
mm/h
press.,
hPa
HPBL,
m
9 may, sun
sun900:00+11sse3689100 0.0 101092
03:00+10sse3990100 0.0 1010164
06:00+12sse51381100 0.0 1009330
09:00+16sse71570100 0.0 1009683
12:00+17s61470100 0.2 1009648
15:00+19sse71165100 0.2 10091135
18:00+18sse51268100 0.3 1009407
21:00+14sw4877100 0.3 1012201
10 may, mon
mon1000:00+11wsw2591100 0.0 1014213
03:00+10wnw2493100 0.2 1016171
06:00+11nw3392100 0.2 1017201
09:00+12n4691100 0.2 1019322
12:00+16n667593 0.0 1020836
15:00+17n897491 0.0 1021709
18:00+14n7118694 1.6 1022451
21:00+11nne51292100 1.7 1024366
11 may, tue
tue1100:00+9nne5119495 0.0 1024338
03:00+9n4997100 0.0 1025242
06:00+10nne4994100 0.0 1026266
09:00+16ne467691 0.0 1026454
12:00+20ene5662100 0.0 1026879
15:00+21ene566189 0.0 10261132
18:00+19ene48729 0.0 1027222
21:00+16ne3107621 0.0 1027196
12 may, wed
wed1200:00+13ene35807 0.0 102764
03:00+12e337813 0.0 102736
06:00+15e28785 0.0 1027207
09:00+20se466198 0.0 1028708
12:00+23ese5849100 0.0 10281902
15:00+22ese695089 0.0 10271786
18:00+19ese41060100 0.0 1027286
21:00+16ese3363100 0.0 102734
13 may, thu
thu1300:00+14e226779 0.0 102724
03:00+14e2366100 0.0 102753
06:00+15ese3107043 0.1 1027283
09:00+20ese695229 0.1 1026659
12:00+23se6942100 0.0 10251393
15:00+23se5849100 0.0 10251470
18:00+19ese1165100 0.0 102512
21:00+17se3467100 0.0 102576